Location: Gensac
(43.2177°N, 1.1313°E)
Time: 22:24:45
(UTC+00:00)

SKYMED 2 - Pass Details

Date: 08 December 2025
Orbit: 622 x 623 km, 97.9° (Epoch: 21 January)

Event Time Altitude Azimuth Distance (km) Brightness Sun altitude
Rises 05:49:34 0° 191° (S) 2,892 7.1 -15.0°
Reaches altitude 10° 05:51:58 10° 202° (SSW) 1,991 6.1 -14.6°
Maximum altitude 05:55:46 30° 264° (W) 1,130 4.4 -13.9°
Enters shadow 05:58:08 18° 312° (NW) 1,523 5.0 -13.5°
